| time (UTC) | temp C | wind direction | speed KPH | gust KPH | rain 1hr cm | rain 24hr cm | rain mn cm | humidity % | barometer mb |
| 20260504045038 | 3 | 45 | 1.6 | 3.2 | 0.00 | 0.03 | 0.00 | 83 | 1014.9 |
| 20260504044016 | 4 | 268 | 3.2 | 4.8 | 0.00 | 0.03 | 0.00 | 83 | 1014.9 |
| 20260504043036 | 4 | 87 | 1.6 | 4.8 | 0.00 | 0.03 | 0.00 | 82 | 1015.1 |
| 20260504042016 | 4 | 84 | 1.6 | 3.2 | 0.00 | 0.03 | 0.00 | 82 | 1014.9 |
| 20260504041016 | 4 | 359 | 1.6 | 4.8 | 0.00 | 0.03 | 0.00 | 81 | 1014.8 |
| 20260504040016 | 4 | 95 | 1.6 | 3.2 | 0.00 | 0.03 | 0.00 | 80 | 1014.8 |
| 20260504035017 | 4 | 97 | 1.6 | 3.2 | 0.00 | 0.03 | 0.03 | 81 | 1014.7 |
| 20260504034016 | 5 | 251 | 1.6 | 3.2 | 0.00 | 0.03 | 0.03 | 80 | 1014.6 |
| 20260504033017 | 5 | 112 | 1.6 | 3.2 | 0.00 | 0.03 | 0.03 | 79 | 1014.5 |
| 20260504032017 | 5 | 98 | 1.6 | 3.2 | 0.00 | 0.03 | 0.03 | 77 | 1014.5 |
| 20260504031017 | 5 | 122 | 1.6 | 3.2 | 0.00 | 0.03 | 0.03 | 76 | 1014.4 |
| 20260504030017 | 5 | 107 | 1.6 | 3.2 | 0.00 | 0.03 | 0.03 | 77 | 1014.4 |
| 20260504025017 | 5 | 89 | 1.6 | 3.2 | 0.00 | 0.03 | 0.03 | 76 | 1014.4 |
| 20260504024017 | 6 | 114 | 1.6 | 3.2 | 0.00 | 0.03 | 0.03 | 75 | 1014.3 |
| 20260504023017 | 6 | 106 | 1.6 | 3.2 | 0.00 | 0.03 | 0.03 | 73 | 1014.3 |
| 20260504022018 | 6 | 112 | 1.6 | 3.2 | 0.00 | 0.03 | 0.03 | 74 | 1014.3 |
| 20260504021018 | 6 | 321 | 1.6 | 3.2 | 0.00 | 0.03 | 0.03 | 73 | 1014.3 |
| 20260504020018 | 6 | 110 | 1.6 | 3.2 | 0.00 | 0.03 | 0.03 | 71 | 1014.3 |
| 20260504015018 | 7 | 62 | 1.6 | 3.2 | 0.00 | 0.03 | 0.03 | 70 | 1014.2 |
| 20260504014018 | 7 | 61 | 1.6 | 3.2 | 0.00 | 0.03 | 0.03 | 68 | 1014.2 |
| 20260504013018 | 7 | 35 | 1.6 | 3.2 | 0.00 | 0.03 | 0.03 | 69 | 1014.0 |
| 20260504012019 | 7 | 358 | 1.6 | 3.2 | 0.00 | 0.03 | 0.03 | 65 | 1014.0 |
| 20260504011017 | 8 | 115 | 3.2 | 6.4 | 0.00 | 0.03 | 0.03 | 65 | 1013.9 |
| 20260504010018 | 8 | 120 | 3.2 | 8.0 | 0.00 | 0.03 | 0.03 | 65 | 1013.8 |
| 20260504005016 | 8 | 101 | 3.2 | 9.7 | 0.00 | 0.03 | 0.03 | 63 | 1013.8 |
| 20260504004016 | 9 | 121 | 1.6 | 4.8 | 0.00 | 0.03 | 0.03 | 59 | 1013.7 |
| 20260504003036 | 10 | 98 | 1.6 | 4.8 | 0.00 | 0.03 | 0.03 | 58 | 1013.5 |
| 20260504002017 | 10 | 86 | 1.6 | 3.2 | 0.00 | 0.03 | 0.03 | 55 | 1013.4 |
| 20260504001016 | 11 | 86 | 1.6 | 4.8 | 0.00 | 0.03 | 0.03 | 54 | 1013.4 |
| 20260504000017 | 12 | 90 | 1.6 | 4.8 | 0.00 | 0.03 | 0.03 | 51 | 1013.3 |
| 20260503235016 | 12 | 54 | 1.6 | 3.2 | 0.00 | 0.03 | 0.03 | 48 | 1013.1 |
| 20260503234036 | 13 | 24 | 1.6 | 3.2 | 0.00 | 0.03 | 0.03 | 44 | 1012.9 |
| 20260503233017 | 14 | 330 | 1.6 | 6.4 | 0.00 | 0.03 | 0.03 | 42 | 1013.0 |
| 20260503232017 | 14 | 293 | 3.2 | 8.0 | 0.00 | 0.03 | 0.03 | 40 | 1013.2 |
| 20260503231018 | 15 | 268 | 1.6 | 4.8 | 0.00 | 0.03 | 0.03 | 40 | 1013.2 |
| 20260503230037 | 15 | 271 | 3.2 | 8.0 | 0.00 | 0.03 | 0.03 | 39 | 1013.4 |
| 20260503225017 | 16 | 264 | 6.4 | 16.1 | 0.00 | 0.03 | 0.03 | 38 | 1013.5 |
| 20260503224039 | 16 | 273 | 3.2 | 9.7 | 0.00 | 0.03 | 0.03 | 37 | 1013.4 |
| 20260503223019 | 16 | 280 | 4.8 | 16.1 | 0.00 | 0.03 | 0.03 | 39 | 1013.4 |
| 20260503222018 | 16 | 271 | 4.8 | 12.9 | 0.03 | 0.03 | 0.03 | 38 | 1013.5 |
| 20260503221058 | 16 | 276 | 4.8 | 11.3 | 0.03 | 0.03 | 0.03 | 37 | 1013.5 |
| 20260503220018 | 16 | 269 | 3.2 | 9.7 | 0.03 | 0.03 | 0.03 | 37 | 1013.4 |
| 20260503215018 | 16 | 254 | 4.8 | 12.9 | 0.00 | 0.03 | 0.03 | 38 | 1013.5 |
| 20260503214018 | 16 | 266 | 6.4 | 14.5 | 0.00 | 0.03 | 0.03 | 36 | 1013.5 |
| 20260503213018 | 16 | 249 | 6.4 | 17.7 | 0.00 | 0.03 | 0.03 | 37 | 1013.4 |
| 20260503212019 | 16 | 269 | 4.8 | 12.9 | 0.00 | 0.00 | 0.00 | 37 | 1013.5 |
| 20260503211036 | 16 | 269 | 4.8 | 14.5 | 0.00 | 0.00 | 0.00 | 38 | 1013.6 |
| 20260503210016 | 16 | 272 | 4.8 | 9.7 | 0.00 | 0.00 | 0.00 | 39 | 1013.6 |
| 20260503205016 | 16 | 274 | 6.4 | 16.1 | 0.00 | 0.00 | 0.00 | 37 | 1013.6 |
| 20260503204016 | 16 | 240 | 4.8 | 9.7 | 0.00 | 0.00 | 0.00 | 37 | 1013.8 |
| 20260503203016 | 15 | 263 | 6.4 | 16.1 | 0.00 | 0.00 | 0.00 | 39 | 1013.9 |
| 20260503202016 | 15 | 257 | 8.0 | 19.3 | 0.00 | 0.00 | 0.00 | 39 | 1013.7 |
| 20260503201016 | 15 | 265 | 4.8 | 11.3 | 0.00 | 0.00 | 0.00 | 39 | 1013.8 |
| 20260503200017 | 16 | 265 | 8.0 | 16.1 | 0.00 | 0.00 | 0.00 | 39 | 1014.2 |
| 20260503195017 | 15 | 256 | 6.4 | 19.3 | 0.00 | 0.00 | 0.00 | 40 | 1014.3 |
| 20260503194017 | 16 | 251 | 6.4 | 22.5 | 0.00 | 0.00 | 0.00 | 39 | 1014.2 |
| 20260503193017 | 15 | 284 | 8.0 | 16.1 | 0.00 | 0.00 | 0.00 | 40 | 1014.6 |
| 20260503192039 | 15 | 255 | 6.4 | 14.5 | 0.00 | 0.00 | 0.00 | 41 | 1014.5 |
| 20260503191037 | 15 | 275 | 8.0 | 17.7 | 0.00 | 0.00 | 0.00 | 41 | 1014.8 |
| 20260503190017 | 14 | 274 | 8.0 | 16.1 | 0.00 | 0.00 | 0.00 | 41 | 1014.9 |
| 20260503185019 | 14 | 236 | 4.8 | 11.3 | 0.00 | 0.00 | 0.00 | 42 | 1014.6 |
| 20260503184018 | 13 | 259 | 4.8 | 17.7 | 0.00 | 0.00 | 0.00 | 42 | 1015.0 |
| 20260503183017 | 13 | 276 | 3.2 | 11.3 | 0.00 | 0.00 | 0.00 | 43 | 1014.5 |
| 20260503182019 | 13 | 255 | 6.4 | 14.5 | 0.00 | 0.00 | 0.00 | 43 | 1015.2 |
| 20260503181018 | 14 | 250 | 8.0 | 16.1 | 0.00 | 0.00 | 0.00 | 41 | 1015.2 |
| 20260503180018 | 14 | 277 | 4.8 | 12.9 | 0.00 | 0.00 | 0.00 | 44 | 1015.3 |
| 20260503175018 | 14 | 242 | 4.8 | 16.1 | 0.00 | 0.00 | 0.00 | 43 | 1015.4 |
| 20260503174018 | 13 | 240 | 4.8 | 11.3 | 0.00 | 0.00 | 0.00 | 43 | 1015.3 |
| 20260503173019 | 13 | 238 | 4.8 | 12.9 | 0.00 | 0.00 | 0.00 | 43 | 1015.5 |
| 20260503172036 | 13 | 264 | 6.4 | 19.3 | 0.00 | 0.00 | 0.00 | 42 | 1015.6 |
| 20260503171016 | 13 | 245 | 6.4 | 12.9 | 0.00 | 0.00 | 0.00 | 44 | 1015.9 |
| 20260503131015 | 8 | 249 | 6.4 | 17.7 | 0.00 | 0.00 | 0.00 | 57 | 1016.4 |
| 20260503081018 | 5 | 246 | 3.2 | 8.0 | 0.00 | 0.00 | 0.00 | 73 | 1012.6 |
| 20260503072018 | 5 | 265 | 4.8 | 9.7 | 0.00 | 0.00 | 0.00 | 73 | 1012.3 |
| 20260503071018 | 5 | 257 | 4.8 | 9.7 | 0.00 | 0.00 | 0.00 | 73 | 1012.3 |
| 20260503055036 | 5 | 280 | 1.6 | 4.8 | 0.00 | 0.00 | 0.00 | 75 | 1012.3 |
| 20260503054016 | 5 | 269 | 3.2 | 6.4 | 0.00 | 0.00 | 0.00 | 76 | 1012.3 |